• In Uzbekistan
  • List of Countries
  • For 7 days
  • Water Temperature
  • Satellite Maps
  • Weather Map
  • Weather Widgets
  • user-avatar
    Login

    Hourly Weather Yulara

    Today, 27 June, Tuesday

    Time Temperature Precipitation Wind Pressure Humidity
    00:00 +14°C° 0 mm 5 mps 720 mmHg 64%
    01:00 +14°C° 0.2 mm 5 mps 719 mmHg 65%
    02:00 +14°C° 0.2 mm 5 mps 719 mmHg 66%
    03:00 +13°C° 0.2 mm 5 mps 719 mmHg 67%
    04:00 +13°C° 0.9 mm 5 mps 719 mmHg 70%
    05:00 +13°C° 0.9 mm 5 mps 719 mmHg 72%
    06:00 +12°C° 0.9 mm 5 mps 719 mmHg 75%
    07:00 +12°C° 1.8 mm 5 mps 719 mmHg 77%
    08:00 +12°C° 1.8 mm 5 mps 719 mmHg 79%
    09:00 +12°C° 1.8 mm 5 mps 720 mmHg 81%
    10:00 +12°C° 1.3 mm 4 mps 720 mmHg 81%
    11:00 +13°C° 1.3 mm 4 mps 719 mmHg 80%
    12:00 +13°C° 1.3 mm 3 mps 719 mmHg 79%
    13:00 +13°C° 0.2 mm 3 mps 719 mmHg 77%
    14:00 +14°C° 0.2 mm 3 mps 719 mmHg 76%
    15:00 +14°C° 0.2 mm 3 mps 719 mmHg 74%
    16:00 +15°C° 0 mm 2 mps 719 mmHg 76%
    17:00 +15°C° 0 mm 2 mps 719 mmHg 78%
    18:00 +14°C° 0 mm 2 mps 719 mmHg 80%
    19:00 +14°C° 0 mm 2 mps 720 mmHg 82%
    20:00 +13°C° 0 mm 2 mps 720 mmHg 84%
    21:00 +13°C° 0 mm 2 mps 720 mmHg 87%
    22:00 +13°C° 0 mm 2 mps 721 mmHg 88%
    23:00 +11°C° 0 mm 3 mps 721 mmHg 89%

    Tomorrow, 28 June, Wednesday

    Time Temperature Precipitation Wind Pressure Humidity
    00:00 +11°C° 0 mm 3 mps 721 mmHg 90%
    01:00 +11°C° 0 mm 4 mps 721 mmHg 89%
    02:00 +11°C° 0 mm 4 mps 721 mmHg 88%
    03:00 +11°C° 0 mm 4 mps 721 mmHg 87%
    04:00 +10°C° 0 mm 5 mps 721 mmHg 83%
    05:00 +10°C° 0 mm 5 mps 721 mmHg 80%
    06:00 +12°C° 0 mm 5 mps 721 mmHg 77%
    07:00 +11°C° 0 mm 6 mps 722 mmHg 75%
    08:00 +11°C° 0 mm 6 mps 722 mmHg 73%
    09:00 +12°C° 0 mm 7 mps 723 mmHg 71%
    10:00 +12°C° 0 mm 7 mps 723 mmHg 67%
    11:00 +14°C° 0 mm 7 mps 723 mmHg 63%
    12:00 +15°C° 0 mm 7 mps 723 mmHg 58%
    13:00 +15°C° 0 mm 7 mps 722 mmHg 56%
    14:00 +15°C° 0 mm 7 mps 722 mmHg 55%
    15:00 +16°C° 0 mm 7 mps 722 mmHg 53%
    16:00 +15°C° 0 mm 7 mps 722 mmHg 53%
    17:00 +14°C° 0 mm 6 mps 723 mmHg 54%
    18:00 +13°C° 0 mm 5 mps 723 mmHg 54%
    19:00 +13°C° 0 mm 5 mps 724 mmHg 58%
    20:00 +11°C° 0 mm 6 mps 724 mmHg 61%
    21:00 +10°C° 0 mm 6 mps 725 mmHg 64%
    22:00 +10°C° 0 mm 6 mps 725 mmHg 66%
    23:00 +9°C° 0 mm 6 mps 725 mmHg 69%

    Day after tomorrow, 29 June, Thursday

    Time Temperature Precipitation Wind Pressure Humidity
    00:00 +9°C° 0 mm 5 mps 725 mmHg 71%
    01:00 +8°C° 0 mm 5 mps 725 mmHg 73%
    02:00 +8°C° 0 mm 5 mps 726 mmHg 74%
    03:00 +8°C° 0 mm 5 mps 726 mmHg 76%
    04:00 +7°C° 0 mm 5 mps 726 mmHg 78%
    05:00 +7°C° 0 mm 5 mps 726 mmHg 79%
    06:00 +5°C° 0 mm 6 mps 726 mmHg 81%
    07:00 +7°C° 0 mm 6 mps 726 mmHg 75%
    08:00 +6°C° 0 mm 7 mps 727 mmHg 70%
    09:00 +7°C° 0 mm 8 mps 727 mmHg 65%
    10:00 +9°C° 0 mm 8 mps 727 mmHg 57%
    11:00 +10°C° 0 mm 8 mps 727 mmHg 49%
    12:00 +12°C° 0 mm 8 mps 726 mmHg 41%
    13:00 +12°C° 0 mm 8 mps 726 mmHg 39%
    14:00 +13°C° 0 mm 8 mps 725 mmHg 37%
    15:00 +15°C° 0 mm 8 mps 725 mmHg 35%
    16:00 +14°C° 0 mm 7 mps 725 mmHg 39%
    17:00 +12°C° 0 mm 7 mps 725 mmHg 44%
    18:00 +11°C° 0 mm 6 mps 725 mmHg 48%
    19:00 +10°C° 0 mm 6 mps 725 mmHg 52%
    20:00 +10°C° 0 mm 6 mps 726 mmHg 57%
    21:00 +9°C° 0 mm 6 mps 726 mmHg 61%
    22:00 +9°C° 0 mm 6 mps 726 mmHg 65%
    23:00 +8°C° 0 mm 6 mps 726 mmHg 69%

    30 June, Friday

    Time Temperature Precipitation Wind Pressure Humidity
    00:00 +8°C° 0 mm 6 mps 726 mmHg 72%
    01:00 +8°C° 0 mm 6 mps 726 mmHg 75%
    02:00 +7°C° 0 mm 6 mps 725 mmHg 77%
    03:00 +7°C° 0 mm 6 mps 725 mmHg 80%
    04:00 +7°C° 0 mm 6 mps 725 mmHg 82%
    05:00 +6°C° 0 mm 5 mps 725 mmHg 83%
    06:00 +6°C° 0 mm 5 mps 725 mmHg 85%
    07:00 +7°C° 0 mm 6 mps 725 mmHg 81%
    08:00 +8°C° 0 mm 7 mps 726 mmHg 77%
    09:00 +8°C° 0 mm 7 mps 726 mmHg 72%
    10:00 +10°C° 0 mm 7 mps 725 mmHg 65%
    11:00 +11°C° 0 mm 7 mps 725 mmHg 57%
    12:00 +14°C° 0 mm 7 mps 724 mmHg 49%
    13:00 +15°C° 0 mm 6 mps 724 mmHg 45%
    14:00 +15°C° 0 mm 6 mps 723 mmHg 41%
    15:00 +16°C° 0 mm 6 mps 722 mmHg 37%
    16:00 +15°C° 0 mm 5 mps 722 mmHg 40%
    17:00 +14°C° 0 mm 4 mps 722 mmHg 42%
    18:00 +13°C° 0 mm 4 mps 722 mmHg 45%
    19:00 +13°C° 0 mm 4 mps 723 mmHg 47%
    20:00 +12°C° 0 mm 4 mps 723 mmHg 49%
    21:00 +11°C° 0 mm 4 mps 723 mmHg 51%
    22:00 +11°C° 0 mm 4 mps 723 mmHg 54%
    23:00 +10°C° 0 mm 4 mps 723 mmHg 56%

    1 July, Saturday

    Time Temperature Precipitation Wind Pressure Humidity
    00:00 +10°C° 0 mm 4 mps 723 mmHg 58%
    01:00 +8°C° 0 mm 4 mps 723 mmHg 60%
    02:00 +9°C° 0 mm 3 mps 723 mmHg 61%
    03:00 +8°C° 0 mm 3 mps 722 mmHg 63%
    04:00 +8°C° 0 mm 3 mps 722 mmHg 65%
    05:00 +7°C° 0 mm 3 mps 722 mmHg 66%
    06:00 +7°C° 0 mm 3 mps 723 mmHg 68%
    07:00 +7°C° 0 mm 4 mps 723 mmHg 65%
    08:00 +8°C° 0 mm 4 mps 723 mmHg 62%
    09:00 +8°C° 0 mm 5 mps 723 mmHg 59%
    10:00 +10°C° 0 mm 5 mps 723 mmHg 53%
    11:00 +13°C° 0 mm 4 mps 722 mmHg 47%
    12:00 +14°C° 0 mm 4 mps 722 mmHg 42%
    13:00 +16°C° 0 mm 3 mps 721 mmHg 39%
    14:00 +17°C° 0 mm 2 mps 720 mmHg 35%
    15:00 +17°C° 0 mm 2 mps 720 mmHg 32%
    16:00 +16°C° 0 mm 2 mps 720 mmHg 35%
    17:00 +15°C° 0 mm 1 mps 720 mmHg 39%
    18:00 +14°C° 0 mm 1 mps 720 mmHg 42%
    19:00 +14°C° 0 mm 1 mps 720 mmHg 43%
    20:00 +13°C° 0 mm 1 mps 720 mmHg 44%
    21:00 +13°C° 0 mm 1 mps 721 mmHg 46%
    22:00 +12°C° 0 mm 1 mps 720 mmHg 47%
    23:00 +12°C° 0 mm 1 mps 720 mmHg 48%

    2 July, Sunday

    Time Temperature Precipitation Wind Pressure Humidity
    00:00 +12°C° 0 mm 2 mps 720 mmHg 49%
    01:00 +10°C° 0 mm 2 mps 720 mmHg 50%
    02:00 +10°C° 0 mm 2 mps 719 mmHg 52%
    03:00 +9°C° 0 mm 2 mps 719 mmHg 53%
    04:00 +9°C° 0 mm 2 mps 719 mmHg 55%
    05:00 +8°C° 0 mm 2 mps 719 mmHg 56%
    06:00 +9°C° 0 mm 1 mps 719 mmHg 58%
    07:00 +10°C° 0 mm 1 mps 720 mmHg 54%
    08:00 +12°C° 0 mm 1 mps 720 mmHg 49%
    09:00 +13°C° 0 mm 1 mps 721 mmHg 44%
    10:00 +14°C° 0 mm 3 mps 720 mmHg 39%
    11:00 +17°C° 0 mm 4 mps 720 mmHg 34%
    12:00 +17°C° 0 mm 5 mps 720 mmHg 28%
    13:00 +19°C° 0 mm 5 mps 719 mmHg 27%
    14:00 +20°C° 0 mm 5 mps 719 mmHg 26%
    15:00 +21°C° 0 mm 5 mps 719 mmHg 25%
    16:00 +19°C° 0 mm 5 mps 719 mmHg 28%
    17:00 +18°C° 0 mm 4 mps 719 mmHg 31%
    18:00 +17°C° 0 mm 3 mps 720 mmHg 34%
    19:00 +15°C° 0 mm 4 mps 720 mmHg 37%
    20:00 +14°C° 0 mm 4 mps 721 mmHg 40%
    21:00 +13°C° 0 mm 5 mps 721 mmHg 42%
    22:00 +13°C° 0 mm 5 mps 721 mmHg 48%
    23:00 +11°C° 0 mm 6 mps 722 mmHg 53%
    Show more